DLH1YN EDDM-LKPR

Flight info

Callsign DLH1YN
Flight time 0h 34m
Altitude 25000
Route AKINI1S AKINI Y104 MAMOR L132 AGNAV DCT LOMKI
Aircraft A320/M-SDE2E3FGIJ1LORWXYZ/HB1

Departure

Time 2026-05-05 18:27
Airport Munich Airport (EDDM)

Arrival

Time 2026-05-05 19:01
Airport Václav Havel Airport Prague (LKPR)
Time Latitude Longitude Altitude Speed Heading
2026-05-05 17:53 48.35237 11.79353 1486 ft 0 kts 263°
2026-05-05 18:09 48.35238 11.79363 1473 ft 2 kts 263°
2026-05-05 18:09 48.35240 11.79392 1481 ft 3 kts 263°
2026-05-05 18:09 48.35243 11.79422 1475 ft 3 kts 263°
2026-05-05 18:10 48.35244 11.79451 1475 ft 3 kts 279°
2026-05-05 18:10 48.35238 11.79478 1477 ft 3 kts 315°
2026-05-05 18:10 48.35223 11.79494 1477 ft 2 kts 349°
2026-05-05 18:10 48.35212 11.79496 1483 ft 2 kts 353°
2026-05-05 18:11 48.35199 11.79498 1483 ft 0 kts 353°
2026-05-05 18:14 48.35213 11.79496 1483 ft 7 kts 353°
2026-05-05 18:14 48.35258 11.79494 1475 ft 6 kts 20°
2026-05-05 18:14 48.35327 11.79542 1481 ft 17 kts
2026-05-05 18:14 48.35438 11.79525 1479 ft 17 kts 354°
2026-05-05 18:15 48.35561 11.79502 1485 ft 19 kts 353°
2026-05-05 18:15 48.35671 11.79485 1485 ft 16 kts 353°
2026-05-05 18:15 48.35771 11.79466 1485 ft 15 kts 353°
2026-05-05 18:15 48.35856 11.79452 1479 ft 8 kts 356°
2026-05-05 18:16 48.35899 11.79471 1473 ft 5 kts 29°
2026-05-05 18:16 48.35905 11.79476 1475 ft 0 kts 30°
2026-05-05 18:16 48.35916 11.79485 1480 ft 2 kts 30°
2026-05-05 18:17 48.35943 11.79500 1485 ft 6 kts 12°
2026-05-05 18:17 48.35978 11.79499 1486 ft 4 kts 355°
2026-05-05 18:17 48.35994 11.79497 1482 ft 0 kts 354°
2026-05-05 18:19 48.36004 11.79495 1478 ft 7 kts 353°
2026-05-05 18:19 48.36088 11.79481 1483 ft 14 kts 353°
2026-05-05 18:20 48.36181 11.79467 1476 ft 10 kts
2026-05-05 18:20 48.36219 11.79545 1485 ft 12 kts 81°
2026-05-05 18:20 48.36235 11.79731 1485 ft 22 kts 84°
2026-05-05 18:20 48.36253 11.79974 1478 ft 25 kts 84°
2026-05-05 18:21 48.36273 11.80240 1485 ft 27 kts 83°
2026-05-05 18:21 48.36295 11.80524 1478 ft 28 kts 83°
2026-05-05 18:21 48.36319 11.80825 1485 ft 28 kts 83°
2026-05-05 18:21 48.36339 11.81094 1477 ft 27 kts 83°
2026-05-05 18:22 48.36361 11.81382 1485 ft 29 kts 84°
2026-05-05 18:22 48.36386 11.81681 1482 ft 27 kts 81°
2026-05-05 18:22 48.36399 11.81889 1485 ft 12 kts 89°
2026-05-05 18:22 48.36412 11.81989 1476 ft 9 kts 40°
2026-05-05 18:23 48.36457 11.82001 1485 ft 3 kts 356°
2026-05-05 18:23 48.36473 11.81999 1478 ft 1 kts 355°
2026-05-05 18:23 48.36474 11.81999 1478 ft 0 kts 355°
2026-05-05 18:24 48.36508 11.81994 1485 ft 7 kts 353°
2026-05-05 18:24 48.36557 11.81985 1485 ft 5 kts 353°
2026-05-05 18:24 48.36559 11.81985 1485 ft 0 kts 353°
2026-05-05 18:25 48.36562 11.81984 1485 ft 4 kts 353°
2026-05-05 18:26 48.36653 11.81967 1485 ft 17 kts 353°
2026-05-05 18:26 48.36673 11.81896 1481 ft 10 kts 266°
2026-05-05 18:26 48.36646 11.81566 1485 ft 68 kts 263°
2026-05-05 18:26 48.36564 11.80502 1473 ft 133 kts 263°
2026-05-05 18:27 48.36448 11.78894 1734 ft 163 kts 265°
2026-05-05 18:27 48.36324 11.77227 2588 ft 162 kts 265°
2026-05-05 18:27 48.36181 11.75428 3025 ft 184 kts 265°
2026-05-05 18:27 48.36025 11.73379 3424 ft 210 kts 265°
2026-05-05 18:28 48.35932 11.68818 5077 ft 226 kts 286°
2026-05-05 18:28 48.36717 11.66753 5966 ft 235 kts 312°
2026-05-05 18:28 48.38121 11.65412 6695 ft 249 kts 339°
2026-05-05 18:29 48.39850 11.64804 7120 ft 267 kts 346°
2026-05-05 18:29 48.41739 11.64240 7772 ft 283 kts 346°
2026-05-05 18:29 48.43698 11.63689 8669 ft 290 kts 349°
2026-05-05 18:29 48.45750 11.63704 9581 ft 301 kts
2026-05-05 18:30 48.47767 11.64676 10423 ft 310 kts 26°
2026-05-05 18:30 48.49529 11.66585 11268 ft 316 kts 45°
2026-05-05 18:30 48.50903 11.69200 12141 ft 320 kts 54°
2026-05-05 18:30 48.52218 11.71933 13046 ft 323 kts 54°
2026-05-05 18:31 48.53546 11.74696 13875 ft 327 kts 54°
2026-05-05 18:31 48.54885 11.77483 14649 ft 331 kts 54°
2026-05-05 18:31 48.56247 11.80312 15428 ft 334 kts 55°
2026-05-05 18:31 48.57634 11.83152 16097 ft 343 kts 51°
2026-05-05 18:32 48.59486 11.85577 16288 ft 365 kts 31°
2026-05-05 18:32 48.61689 11.87580 16790 ft 374 kts 31°
2026-05-05 18:32 48.63944 11.89617 17498 ft 379 kts 31°
2026-05-05 18:32 48.66224 11.91678 18195 ft 383 kts 31°
2026-05-05 18:33 48.68524 11.93764 18645 ft 387 kts 31°
2026-05-05 18:33 48.70835 11.95869 18783 ft 388 kts 31°
2026-05-05 18:33 48.73114 11.97956 18820 ft 388 kts 32°
2026-05-05 18:33 48.75451 12.00100 18819 ft 387 kts 32°
2026-05-05 18:34 48.77757 12.02216 18820 ft 387 kts 32°
2026-05-05 18:34 48.78759 12.03136 18871 ft 389 kts 32°
2026-05-05 18:34 48.81351 12.05513 19583 ft 392 kts 32°
2026-05-05 18:34 48.83695 12.07670 20230 ft 396 kts 32°
2026-05-05 18:35 48.86053 12.09844 20850 ft 399 kts 32°
2026-05-05 18:35 48.88413 12.12022 21434 ft 403 kts 32°
2026-05-05 18:35 48.90821 12.14244 22021 ft 407 kts 32°
2026-05-05 18:35 48.93342 12.16256 22569 ft 411 kts 26°
2026-05-05 18:36 48.95936 12.18139 23128 ft 415 kts 26°
2026-05-05 18:36 48.98576 12.19998 23637 ft 419 kts 25°
2026-05-05 18:36 49.01237 12.21845 24107 ft 422 kts 25°
2026-05-05 18:36 49.03926 12.23704 24573 ft 426 kts 25°
2026-05-05 18:37 49.05303 12.24659 24687 ft 427 kts 25°
2026-05-05 18:37 49.08087 12.26595 24790 ft 424 kts 25°
2026-05-05 18:37 49.09871 12.27845 24818 ft 411 kts 26°
2026-05-05 18:37 49.12415 12.29640 24801 ft 398 kts 26°
2026-05-05 18:38 49.14913 12.31412 24804 ft 394 kts 26°
2026-05-05 18:38 49.17395 12.33179 24804 ft 393 kts 26°
2026-05-05 18:38 49.19873 12.34949 24795 ft 393 kts 26°
2026-05-05 18:38 49.22349 12.36717 24789 ft 392 kts 26°
2026-05-05 18:39 49.24818 12.38482 24786 ft 392 kts 26°
2026-05-05 18:39 49.27289 12.40247 24784 ft 391 kts 26°
2026-05-05 18:39 49.29759 12.42007 24784 ft 391 kts 26°
2026-05-05 18:39 49.32190 12.43744 24782 ft 391 kts 26°
2026-05-05 18:40 49.34644 12.45504 24617 ft 388 kts 26°
2026-05-05 18:40 49.37079 12.47253 24371 ft 385 kts 26°
2026-05-05 18:40 49.39490 12.48986 24066 ft 382 kts 26°
2026-05-05 18:40 49.41892 12.50712 23761 ft 379 kts 26°
2026-05-05 18:41 49.44270 12.52424 23461 ft 377 kts 26°
2026-05-05 18:41 49.46637 12.54128 23184 ft 375 kts 26°
2026-05-05 18:41 49.48991 12.55837 22911 ft 373 kts 28°
2026-05-05 18:41 49.51096 12.58100 22644 ft 368 kts 47°
2026-05-05 18:42 49.52649 12.61181 22377 ft 363 kts 60°
2026-05-05 18:42 49.53977 12.64480 22100 ft 362 kts 61°
2026-05-05 18:42 49.55295 12.67776 21819 ft 361 kts 61°
2026-05-05 18:42 49.56605 12.71067 21575 ft 360 kts 61°
2026-05-05 18:43 49.57914 12.74360 21316 ft 359 kts 61°
2026-05-05 18:43 49.59216 12.77639 21052 ft 359 kts 61°
2026-05-05 18:43 49.60517 12.80909 20795 ft 358 kts 60°
2026-05-05 18:43 49.61817 12.84178 20538 ft 357 kts 60°
2026-05-05 18:44 49.63110 12.87438 20285 ft 356 kts 60°
2026-05-05 18:44 49.64399 12.90691 20034 ft 355 kts 60°
2026-05-05 18:44 49.65684 12.93931 19785 ft 354 kts 60°
2026-05-05 18:44 49.66967 12.97167 19534 ft 353 kts 60°
2026-05-05 18:45 49.68242 13.00392 19286 ft 352 kts 60°
2026-05-05 18:45 49.69509 13.03608 19052 ft 351 kts 60°
2026-05-05 18:45 49.70775 13.06827 18813 ft 350 kts 60°
2026-05-05 18:45 49.72035 13.10034 18574 ft 348 kts 60°
2026-05-05 18:46 49.73289 13.13232 18333 ft 347 kts 60°
2026-05-05 18:46 49.74541 13.16426 18108 ft 347 kts 60°
2026-05-05 18:46 49.75789 13.19605 17845 ft 345 kts 60°
2026-05-05 18:46 49.77032 13.22770 17572 ft 342 kts 60°
2026-05-05 18:47 49.78259 13.25899 17171 ft 340 kts 60°
2026-05-05 18:47 49.79481 13.29032 16765 ft 339 kts 60°
2026-05-05 18:47 49.80901 13.31885 16630 ft 332 kts 46°
2026-05-05 18:47 49.82530 13.34347 16551 ft 325 kts 45°
2026-05-05 18:48 49.84180 13.36848 16482 ft 336 kts 46°
2026-05-05 18:48 49.85862 13.39402 16164 ft 340 kts 46°
2026-05-05 18:48 49.87556 13.41973 15724 ft 341 kts 46°
2026-05-05 18:48 49.89236 13.44516 15392 ft 335 kts 46°
2026-05-05 18:49 49.90893 13.47027 14944 ft 332 kts 46°
2026-05-05 18:49 49.92533 13.49516 14408 ft 328 kts 46°
2026-05-05 18:49 49.94164 13.51989 13888 ft 328 kts 46°
2026-05-05 18:49 49.95781 13.54445 13340 ft 322 kts 46°
2026-05-05 18:50 49.97368 13.56860 12760 ft 317 kts 46°
2026-05-05 18:50 49.98934 13.59247 12138 ft 314 kts 46°
2026-05-05 18:50 50.00490 13.61624 11528 ft 313 kts 46°
2026-05-05 18:50 50.02034 13.63983 10842 ft 311 kts 46°
2026-05-05 18:51 50.03582 13.66349 10100 ft 311 kts 46°
2026-05-05 18:51 50.05131 13.68721 9278 ft 314 kts 46°
2026-05-05 18:51 50.06683 13.71099 8503 ft 311 kts 46°
2026-05-05 18:51 50.08195 13.73419 7983 ft 300 kts 46°
2026-05-05 18:52 50.09667 13.75673 7339 ft 295 kts 46°
2026-05-05 18:52 50.11117 13.77892 6687 ft 290 kts 46°
2026-05-05 18:52 50.12532 13.80060 6260 ft 278 kts 47°
2026-05-05 18:52 50.13868 13.82111 5920 ft 263 kts 47°
2026-05-05 18:53 50.15140 13.84069 5525 ft 253 kts 47°
2026-05-05 18:53 50.16338 13.85915 5391 ft 234 kts 47°
2026-05-05 18:53 50.17460 13.87643 5324 ft 214 kts 47°
2026-05-05 18:53 50.18463 13.89190 5292 ft 190 kts 48°
2026-05-05 18:54 50.19352 13.90554 5253 ft 169 kts 48°
2026-05-05 18:54 50.20177 13.91813 5225 ft 166 kts 48°
2026-05-05 18:54 50.21003 13.93070 5206 ft 166 kts 48°
2026-05-05 18:54 50.21817 13.94304 5184 ft 165 kts 49°
2026-05-05 18:55 50.22554 13.95650 5149 ft 161 kts 65°
2026-05-05 18:55 50.22909 13.97273 5126 ft 157 kts 87°
2026-05-05 18:55 50.22842 13.98948 5029 ft 154 kts 107°
2026-05-05 18:55 50.22374 14.00437 4881 ft 157 kts 127°
2026-05-05 18:56 50.21708 14.01822 4693 ft 161 kts 126°
2026-05-05 18:56 50.21037 14.03227 4493 ft 162 kts 126°
2026-05-05 18:56 50.20363 14.04634 4265 ft 162 kts 124°
2026-05-05 18:56 50.19688 14.06045 4055 ft 162 kts 124°
2026-05-05 18:57 50.19015 14.07448 3834 ft 160 kts 123°
2026-05-05 18:57 50.18355 14.08826 3629 ft 156 kts 124°
2026-05-05 18:57 50.17706 14.10177 3428 ft 155 kts 123°
2026-05-05 18:57 50.17073 14.11495 3220 ft 148 kts 123°
2026-05-05 18:58 50.16479 14.12732 3053 ft 139 kts 122°
2026-05-05 18:58 50.15907 14.13922 2864 ft 136 kts 122°
2026-05-05 18:58 50.15341 14.15102 2689 ft 136 kts 122°
2026-05-05 18:58 50.14773 14.16284 2508 ft 136 kts 122°
2026-05-05 18:59 50.14206 14.17464 2333 ft 136 kts 120°
2026-05-05 18:59 50.13636 14.18647 2163 ft 137 kts 121°
2026-05-05 18:59 50.13060 14.19844 1958 ft 138 kts 122°
2026-05-05 18:59 50.12484 14.21041 1757 ft 138 kts 122°
2026-05-05 19:00 50.11906 14.22230 1602 ft 138 kts 124°
2026-05-05 19:00 50.11341 14.23438 1370 ft 134 kts 123°
2026-05-05 19:00 50.10762 14.24616 1196 ft 137 kts 124°
2026-05-05 19:00 50.10271 14.25642 1175 ft 95 kts 127°
2026-05-05 19:01 50.09970 14.26264 1172 ft 52 kts 128°
2026-05-05 19:01 50.09866 14.26515 1174 ft 21 kts 102°
2026-05-05 19:01 50.09885 14.26745 1175 ft 22 kts 79°
2026-05-05 19:01 50.09910 14.26984 1176 ft 19 kts 79°
2026-05-05 19:02 50.09938 14.27109 1172 ft 8 kts
2026-05-05 19:02 50.09973 14.27062 1175 ft 6 kts 309°
2026-05-05 19:02 50.10004 14.26987 1171 ft 10 kts 306°
2026-05-05 19:02 50.10060 14.26887 1174 ft 14 kts 310°
2026-05-05 19:03 50.10129 14.26749 1175 ft 18 kts 307°
2026-05-05 19:03 50.10212 14.26578 1175 ft 21 kts 307°
2026-05-05 19:03 50.10305 14.26386 1174 ft 23 kts 306°
2026-05-05 19:03 50.10396 14.26195 1175 ft 21 kts 307°
2026-05-05 19:04 50.10464 14.26142 1173 ft 8 kts 29°
2026-05-05 19:04 50.10529 14.26233 1176 ft 13 kts 79°
2026-05-05 19:04 50.10488 14.26356 1172 ft 13 kts 126°
2026-05-05 19:04 50.10439 14.26462 1176 ft 11 kts 126°
2026-05-05 19:05 50.10390 14.26551 1173 ft 10 kts 126°
2026-05-05 19:05 50.10356 14.26631 1174 ft 5 kts 121°
2026-05-05 19:05 50.10368 14.26659 1175 ft 3 kts 45°
2026-05-05 19:05 50.10381 14.26675 1172 ft 4 kts 36°
2026-05-05 19:06 50.10394 14.26689 1173 ft 1 kts 33°